QPF
0.00 0.00 0.00 0.00 0.00 0.00 0.00 0.00 0.00 0.00 0.00 0.00 0.00 0.00 0.00 0.00 0.00 0.00 0.00 0.00 0.00 0.00 0.00 0.00 0.00 0.00 0.00 0.00 0.00 0.00 0.00 0.00 0.00 0.00 0.00 0.00 0.00 0.00 0.00 0.00 0.00 0.00 0.00 0.00
0.00 0.00 0.00 0.00 0.00 0.00 0.00 0.00 0.00 0.00 0.00 0.00 0.00 0.00 0.00 0.00 0.00 0.00 0.00 0.00 0.00 0.00 0.00 0.00 0.00 0.00 0.00 0.00 0.00 0.00 0.00 0.00 0.01 0.03 0.06 0.07 0.08 0.05 0.02 0.01 0.00 0.00 0.00 0.00
0.00 0.00 0.00 0.00 0.00 0.00 0.00 0.00 0.00 0.00 0.00 0.00 0.00 0.00 0.00 0.00 0.00 0.00 0.00 0.00 0.00 0.00 0.00 0.00 0.00 0.00 0.00 0.00 0.00 0.00 0.00 0.00 0.02 0.04 0.06 0.05 0.01 0.01 0.01 0.00 0.00 0.00 0.00 0.00
0.00 0.00 0.00 0.00 0.00 0.00 0.00 0.00 0.00 0.00 0.00 0.00 0.00 0.00 0.00 0.00 0.00 0.00 0.00 0.00 0.00 0.00 0.00 0.00 0.00 0.00 0.00 0.00 0.00 0.00 0.00 0.00 0.00 0.00 0.00 0.00 0.00 0.00 0.00 0.00 0.00 0.00 0.00 0.00
0.00 0.00 0.00 0.00 0.00 0.00 0.00 0.00 0.00 0.00 0.00 0.00 0.00 0.00 0.00 0.00 0.00 0.00 0.00 0.00 0.00 0.00 0.00 0.00 0.00 0.00 0.00 0.00 0.00 0.00 0.00 0.00 0.00 0.00 0.00 0.00 0.00 0.00 0.00 0.00 0.00 0.00 0.00 0.00
0.00 0.00 0.01 0.00 0.00 0.00 0.00 0.00 0.00 0.00 0.00 0.00 0.00 0.00 0.00 0.00 0.01 0.02 0.01 0.00 0.00 0.00 0.00 0.00 0.00 0.00 0.00 0.00 0.00 0.00 0.00 0.00 0.00 0.00 0.00 0.00 0.00 0.00 0.00 0.00 0.00 0.00 0.00 0.00
0.00 0.00 0.00 0.00 0.00 0.00 0.01 0.00 0.00 0.00 0.00 0.00 0.01 0.03 0.01 0.01 0.02 0.01 0.00 0.00 0.00 0.00 0.00 0.00 0.00 0.00 0.00 0.00 0.00 0.00 0.00 0.00 0.00 0.00 0.00 0.00 0.00 0.00 0.00 0.00 0.00 0.00 0.00 0.00
0.00 0.01 0.00 0.00 0.00 0.01 0.01 0.00 0.00 0.00 0.00 0.00 0.00 0.01 0.02 0.02 0.00 0.00 0.00 0.00 0.00 0.00 0.00 0.00 0.00 0.00 0.00 0.00 0.00 0.00 0.00 0.00 0.00 0.00 0.00 0.00 0.00 0.00 0.00 0.00 0.00 0.00 0.00 0.00
0.00 0.00 0.00 0.00 0.00 0.00 0.00 0.00 0.00 0.00 0.00 0.00 0.01 0.02 0.02 0.00 0.00 0.00 0.00 0.00 0.00 0.00 0.00 0.00 0.00 0.00 0.00 0.00 0.00 0.00 0.00 0.00 0.00 0.00 0.00 0.00 0.00 0.00 0.00 0.00 0.00 0.00 0.00 0.00
0.00 0.00 0.00 0.00 0.00 0.00 0.00 0.00 0.00 0.00 0.00 0.01 0.03 0.02 0.00 0.00 0.00 0.00 0.00 0.00 0.00 0.00 0.00 0.00 0.00 0.00 0.00 0.00 0.00 0.00 0.00 0.00 0.00 0.00 0.00 0.00 0.00 0.00 0.00 0.00 0.00 0.00 0.00 0.00
0.01 0.00 0.00 0.00 0.00 0.01 0.02 0.02 0.01 0.01 0.06 0.06 0.02 0.00 0.00 0.00 0.00 0.00 0.00 0.00 0.00 0.00 0.00 0.00 0.00 0.00 0.00 0.00 0.00 0.00 0.00 0.00 0.00 0.00 0.00 0.00 0.00 0.00 0.00 0.00 0.00 0.00 0.00 0.01
0.01 0.00 0.02 0.02 0.06 0.08 0.05 0.01 0.03 0.06 0.03 0.00 0.00 0.00 0.00 0.00 0.00 0.00 0.00 0.00 0.00 0.00 0.00 0.00 0.00 0.00 0.00 0.00 0.00 0.00 0.00 0.00 0.00 0.00 0.00 0.00 0.00 0.00 0.00 0.00 0.00 0.00 0.00 0.00
0.01 0.01 0.04 0.08 0.05 0.01 0.00 0.01 0.01 0.00 0.00 0.00 0.00 0.00 0.00 0.00 0.00 0.00 0.00 0.00 0.00 0.00 0.00 0.00 0.00 0.00 0.00 0.00 0.00 0.00 0.00 0.00 0.00 0.00 0.00 0.00 0.00 0.00 0.00 0.00 0.00 0.00 0.00 0.00
0.01 0.02 0.01 0.00 0.00 0.00 0.00 0.00 0.00 0.00 0.00 0.00 0.00 0.00 0.00 0.00 0.00 0.00 0.00 0.00 0.00 0.00 0.00 0.00 0.00 0.00 0.00 0.00 0.00 0.00 0.00 0.00 0.00 0.00 0.00 0.00 0.00 0.00 0.00 0.00 0.00 0.00 0.00 0.00
0.00 0.00 0.00 0.00 0.00 0.00 0.00 0.00 0.00 0.00 0.00 0.00 0.00 0.00 0.00 0.00 0.00 0.00 0.00 0.00 0.00 0.00 0.00 0.00 0.00 0.00 0.00 0.00 0.00 0.00 0.00 0.00 0.00 0.00 0.00 0.00 0.00 0.00 0.00 0.00 0.00 0.00 0.00 0.00
0.00 0.00 0.00 0.00 0.00 0.00 0.00 0.00 0.00 0.00 0.00 0.00 0.00 0.00 0.00 0.00 0.00 0.00 0.00 0.00 0.00 0.00 0.00 0.00 0.00 0.00 0.00 0.00 0.00 0.00 0.00 0.00 0.00 0.00 0.00 0.00 0.00 0.00 0.00 0.00 0.00 0.00 0.00 0.00
0.00 0.00 0.00 0.00 0.00 0.00 0.00 0.00 0.00 0.00 0.00 0.00 0.00 0.00 0.00 0.00 0.00 0.00 0.00 0.00 0.00 0.00 0.00 0.00 0.00 0.00 0.00 0.00 0.00 0.00 0.00 0.00 0.00 0.00 0.00 0.00 0.00 0.00 0.00 0.00 0.00 0.00 0.00 0.00
0.00 0.00 0.00 0.00 0.00 0.00 0.00 0.00 0.00 0.00 0.00 0.00 0.00 0.00 0.00 0.00 0.00 0.00 0.00 0.00 0.00 0.00 0.00 0.00 0.00 0.00 0.00 0.00 0.00 0.00 0.00 0.00 0.00 0.00 0.00 0.00 0.00 0.00 0.00 0.00 0.00 0.00 0.00 0.00
0.00 0.00 0.00 0.00 0.00 0.00 0.00 0.00 0.00 0.00 0.00 0.00 0.00 0.00 0.00 0.00 0.00 0.00 0.00 0.00 0.00 0.00 0.00 0.00 0.00 0.00 0.00 0.00 0.00 0.00 0.00 0.00 0.00 0.00 0.00 0.00 0.00 0.00 0.00 0.00 0.00 0.00 0.00 0.00
0.00 0.00 0.00 0.00 0.00 0.00 0.00 0.00 0.00 0.00 0.00 0.00 0.00 0.00 0.00 0.00 0.00 0.00 0.00 0.00 0.00 0.00 0.00 0.00 0.00 0.00 0.00 0.00 0.00 0.01 0.00 0.00 0.00 0.00 0.00 0.00 0.00 0.00 0.00 0.00 0.00 0.00 0.00 0.00
0.00 0.00 0.00 0.00 0.00 0.00 0.00 0.00 0.00 0.00 0.00 0.00 0.00 0.01 0.00 0.00 0.00 0.00 0.00 0.00 0.00 0.00 0.00 0.00 0.00 0.00 0.00 0.00 0.00 0.00 0.00 0.00 0.00 0.00 0.00 0.00 0.00 0.00 0.00 0.00 0.00 0.00 0.00 0.00
0.00 0.00 0.00 0.00 0.00 0.00 0.00 0.00 0.00 0.00 0.00 0.00 0.01 0.01 0.01 0.00 0.00 0.00 0.00 0.00 0.00 0.00 0.00 0.00 0.00 0.00 0.00 0.00 0.00 0.00 0.00 0.00 0.00 0.00 0.00 0.00 0.00 0.00 0.00 0.00 0.00 0.00 0.00 0.00
0.00 0.00 0.00 0.00 0.00 0.00 0.00 0.00 0.00 0.00 0.00 0.00 0.02 0.03 0.02 0.01 0.00 0.00 0.00 0.00 0.00 0.00 0.00 0.00 0.00 0.00 0.00 0.00 0.00 0.00 0.01 0.00 0.00 0.00 0.00 0.00 0.00 0.00 0.00 0.00 0.00 0.00 0.00 0.00
0.00 0.00 0.00 0.00 0.00 0.00 0.00 0.00 0.00 0.00 0.00 0.01 0.03 0.03 0.02 0.01 0.00 0.00 0.00 0.00 0.00 0.00 0.00 0.00 0.00 0.00 0.00 0.00 0.00 0.00 0.00 0.00 0.00 0.00 0.00 0.01 0.00 0.00 0.00 0.00 0.00 0.00 0.00 0.00
0.00 0.00 0.00 0.00 0.00 0.00 0.00 0.00 0.00 0.00 0.00 0.01 0.03 0.02 0.01 0.00 0.00 0.00 0.00 0.00 0.00 0.00 0.00 0.00 0.00 0.00 0.00 0.00 0.00 0.00 0.00 0.00 0.00 0.00 0.00 0.00 0.00 0.00 0.00 0.00 0.00 0.00 0.00 0.00
0.00 0.00 0.00 0.00 0.00 0.00 0.00 0.00 0.01 0.01 0.01 0.01 0.01 0.00 0.00 0.00 0.00 0.00 0.00 0.00 0.00 0.00 0.00 0.00 0.00 0.00 0.00 0.01 0.01 0.00 0.00 0.00 0.00 0.00 0.00 0.00 0.00 0.00 0.00 0.00 0.00 0.00 0.00 0.00
0.00 0.00 0.00 0.00 0.00 0.00 0.00 0.01 0.02 0.01 0.00 0.00 0.00 0.00 0.00 0.00 0.00 0.00 0.00 0.00 0.00 0.00 0.00 0.00 0.00 0.00 0.00 0.00 0.00 0.00 0.00 0.00 0.00 0.00 0.00 0.00 0.00 0.00 0.00 0.00 0.00 0.00 0.00 0.00
MSLP
1025.56 1025.23 1024.83 1023.95 1023.69 1023.52 1024.18 1023.99 1024.34 1022.71 1022.17 1021.23 1021.01 1021.18 1021.00 1020.74 1020.60 1020.31 1019.81 1019.35 1019.01 1019.04 1018.75 1018.16 1017.91 1017.65 1017.57 1017.44 1017.26 1016.88 1016.67 1016.59 1016.57 1016.40 1016.21 1016.31 1016.32 1016.18 1015.99 1015.81 1015.28 1015.20 1015.08 1014.92
1026.07 1025.62 1025.03 1024.02 1023.09 1023.18 1023.01 1022.82 1022.80 1022.31 1021.72 1020.75 1020.96 1021.07 1021.06 1020.78 1020.52 1020.19 1019.80 1019.16 1019.11 1018.83 1018.42 1018.11 1017.85 1017.63 1017.55 1017.41 1017.35 1017.15 1017.03 1016.96 1016.92 1016.85 1017.02 1016.76 1016.68 1016.53 1016.22 1016.11 1015.81 1015.53 1015.22 1015.10
1027.45 1026.75 1025.73 1023.82 1022.14 1022.06 1022.13 1021.95 1021.99 1022.02 1021.13 1020.98 1021.05 1020.96 1020.70 1020.31 1020.28 1019.89 1019.34 1019.21 1018.99 1018.75 1018.56 1018.31 1018.14 1018.20 1017.94 1017.61 1017.43 1017.28 1017.16 1016.91 1016.68 1016.89 1016.64 1016.84 1016.80 1016.38 1016.04 1015.86 1015.67 1015.48 1015.38 1015.22
1028.07 1027.22 1026.15 1022.29 1021.33 1021.08 1021.27 1021.18 1020.81 1020.96 1020.74 1020.74 1020.73 1020.28 1020.28 1020.09 1019.97 1019.86 1019.68 1019.46 1019.08 1018.85 1018.48 1018.36 1018.40 1018.13 1017.79 1017.57 1017.49 1017.72 1017.61 1017.50 1017.08 1016.78 1016.52 1016.57 1016.49 1016.33 1016.14 1016.00 1015.98 1015.81 1015.57 1015.39
1028.26 1027.14 1024.83 1022.68 1020.85 1020.44 1020.48 1020.39 1020.11 1020.24 1020.34 1020.55 1020.43 1020.46 1020.03 1019.41 1019.80 1019.79 1019.61 1019.31 1019.28 1019.12 1018.69 1018.41 1018.28 1018.36 1018.37 1018.27 1018.28 1017.96 1018.03 1017.96 1017.62 1017.18 1016.77 1016.68 1016.66 1016.50 1016.30 1016.26 1016.14 1016.04 1015.85 1015.69
1028.17 1027.11 1024.75 1021.81 1020.42 1020.10 1020.37 1020.29 1019.78 1020.19 1020.51 1020.52 1020.45 1020.36 1019.75 1020.11 1020.15 1020.46 1019.65 1019.21 1018.89 1018.71 1018.45 1018.58 1018.65 1018.53 1018.46 1018.39 1018.39 1017.98 1017.72 1017.82 1017.56 1017.50 1017.22 1016.98 1016.88 1016.73 1016.58 1016.54 1016.38 1016.29 1016.05 1015.76
1026.99 1026.23 1023.90 1020.85 1020.34 1020.18 1020.69 1020.46 1020.06 1020.19 1020.38 1020.39 1020.46 1019.92 1020.07 1019.78 1019.76 1019.72 1018.65 1018.58 1019.01 1018.80 1018.75 1018.51 1018.46 1018.43 1018.41 1018.09 1018.34 1018.21 1017.71 1017.80 1017.74 1017.69 1017.43 1017.16 1017.06 1016.90 1016.84 1016.74 1016.64 1016.62 1016.30 1015.90
1026.22 1025.26 1022.53 1020.16 1020.13 1020.44 1020.21 1019.63 1019.92 1020.06 1020.05 1020.08 1020.03 1020.08 1020.42 1020.31 1019.69 1019.09 1019.51 1019.39 1019.17 1018.94 1018.66 1018.39 1018.36 1018.48 1018.31 1018.22 1018.20 1018.12 1018.01 1018.01 1018.02 1017.92 1017.69 1017.45 1017.32 1017.12 1017.01 1016.98 1016.82 1016.59 1016.23 1015.74
1023.88 1022.22 1020.47 1020.02 1019.68 1019.57 1019.82 1019.78 1019.87 1020.12 1020.39 1020.20 1020.47 1020.67 1020.75 1019.79 1019.12 1018.78 1018.76 1019.02 1019.06 1018.98 1018.50 1018.08 1018.06 1018.47 1018.24 1017.97 1017.98 1018.01 1018.13 1018.17 1018.18 1018.02 1017.81 1017.67 1017.54 1017.33 1017.19 1017.06 1016.91 1016.63 1016.20 1015.70
1022.29 1020.85 1019.74 1019.63 1019.16 1019.13 1019.32 1019.49 1020.09 1020.29 1020.81 1021.03 1021.57 1020.86 1019.81 1019.19 1019.47 1018.96 1018.51 1018.73 1019.06 1018.87 1018.31 1017.93 1017.72 1017.59 1017.56 1017.71 1017.76 1017.95 1018.11 1018.17 1018.15 1018.08 1017.97 1017.82 1017.61 1017.38 1017.28 1017.04 1016.82 1016.43 1016.08 1015.56
1020.81 1020.22 1019.59 1019.43 1019.26 1019.68 1019.80 1019.73 1020.38 1021.08 1021.27 1020.99 1020.03 1019.44 1019.05 1018.76 1018.73 1018.67 1018.59 1018.53 1018.83 1018.65 1018.21 1017.83 1017.51 1017.37 1017.39 1017.44 1017.59 1017.88 1018.05 1018.13 1018.13 1018.11 1018.10 1017.92 1017.65 1017.41 1017.20 1016.94 1016.71 1016.16 1015.78 1015.48
1019.52 1019.47 1019.38 1019.31 1019.70 1020.01 1020.46 1020.64 1020.89 1020.65 1020.23 1019.78 1019.50 1019.15 1018.81 1018.77 1018.57 1018.45 1018.42 1018.33 1018.33 1018.25 1018.01 1017.79 1017.48 1017.36 1017.21 1017.20 1017.50 1017.84 1018.00 1018.07 1018.16 1018.19 1018.08 1017.94 1017.72 1017.42 1017.10 1016.79 1016.48 1016.15 1015.69 1015.20
1019.10 1018.93 1019.42 1019.98 1020.33 1020.35 1020.55 1020.88 1020.48 1020.21 1019.86 1020.00 1019.52 1019.48 1019.20 1018.93 1018.47 1018.48 1018.51 1018.39 1018.17 1017.99 1017.86 1017.69 1017.44 1017.28 1017.33 1017.32 1017.50 1017.86 1018.02 1018.15 1018.21 1018.27 1018.20 1018.02 1017.84 1017.80 1017.71 1016.96 1016.68 1016.25 1015.79 1015.25
1018.85 1018.98 1019.33 1019.97 1020.30 1020.43 1020.24 1020.16 1020.16 1020.04 1019.96 1019.85 1019.76 1019.47 1019.34 1019.09 1018.78 1018.79 1018.56 1018.41 1018.26 1018.07 1017.92 1017.78 1017.57 1017.54 1017.46 1017.45 1017.58 1017.94 1018.00 1018.11 1018.19 1018.32 1018.32 1018.16 1018.08 1018.02 1017.91 1017.84 1017.53 1016.75 1016.05 1015.58
1018.89 1019.01 1019.24 1019.95 1020.31 1020.36 1020.46 1020.45 1020.38 1020.36 1020.26 1020.27 1019.90 1019.97 1019.75 1019.47 1019.19 1018.92 1018.62 1018.52 1018.48 1018.23 1018.22 1018.11 1017.98 1017.86 1017.72 1017.57 1017.61 1017.85 1018.00 1018.22 1018.46 1018.41 1018.30 1018.23 1018.21 1018.22 1018.06 1017.92 1017.71 1017.29 1016.65 1015.90
1019.47 1019.81 1020.18 1020.58 1020.90 1021.01 1021.05 1020.99 1020.98 1020.77 1020.57 1020.46 1020.39 1020.29 1020.00 1019.74 1019.30 1019.03 1018.94 1018.87 1018.70 1018.70 1018.76 1018.54 1018.24 1018.03 1017.81 1017.66 1017.77 1017.95 1017.92 1018.00 1018.18 1018.29 1018.31 1018.37 1018.36 1018.34 1018.25 1018.15 1017.95 1017.63 1017.09 1016.47
1020.18 1020.69 1020.91 1021.16 1021.34 1021.09 1021.00 1020.75 1021.09 1020.98 1020.75 1020.48 1020.41 1020.22 1019.74 1019.48 1019.32 1019.14 1019.08 1018.93 1018.91 1018.97 1018.77 1018.56 1018.45 1018.13 1018.02 1017.88 1017.87 1018.02 1018.19 1018.09 1017.97 1018.19 1018.37 1018.46 1018.46 1018.45 1018.39 1018.34 1018.18 1017.87 1017.35 1016.75
1020.89 1021.06 1021.13 1021.29 1021.22 1020.98 1020.95 1020.79 1020.72 1020.73 1020.69 1020.38 1020.31 1020.08 1019.73 1019.70 1019.58 1019.17 1019.24 1018.95 1018.97 1018.91 1018.77 1018.59 1018.40 1018.08 1017.90 1017.91 1017.86 1017.97 1018.19 1018.29 1018.31 1018.37 1018.47 1018.52 1018.57 1018.59 1018.49 1018.37 1018.22 1017.95 1017.57 1017.08
1021.31 1021.23 1021.03 1020.81 1020.93 1020.99 1020.96 1020.68 1020.35 1020.33 1020.32 1020.15 1019.97 1019.66 1019.22 1019.32 1019.41 1019.30 1019.13 1018.96 1019.04 1018.97 1018.78 1018.49 1018.19 1017.91 1017.85 1017.78 1017.72 1017.79 1018.10 1018.53 1018.44 1018.45 1018.58 1018.66 1018.66 1018.64 1018.55 1018.42 1018.28 1018.05 1017.78 1017.45
1021.73 1021.36 1021.13 1021.04 1020.79 1020.76 1020.67 1020.27 1020.15 1020.03 1019.73 1019.64 1019.50 1019.19 1019.00 1018.84 1018.83 1019.02 1018.82 1018.89 1018.52 1018.40 1018.38 1018.24 1018.04 1017.90 1017.79 1017.81 1017.65 1017.82 1017.98 1018.31 1018.35 1018.47 1018.60 1018.73 1018.79 1018.75 1018.68 1018.52 1018.37 1018.18 1017.94 1017.70
1021.87 1021.50 1021.26 1020.99 1020.65 1020.35 1020.23 1019.79 1019.56 1019.13 1018.73 1018.89 1018.79 1018.52 1018.50 1018.46 1018.61 1018.71 1018.83 1018.58 1018.18 1018.00 1018.09 1018.05 1017.95 1017.87 1017.81 1017.73 1017.61 1017.67 1017.67 1017.83 1018.08 1018.28 1018.50 1018.66 1018.79 1018.83 1018.76 1018.60 1018.44 1018.27 1018.07 1017.86
1021.57 1021.46 1020.96 1020.53 1020.28 1019.82 1019.19 1018.96 1018.84 1018.47 1018.27 1017.97 1017.74 1017.82 1018.19 1018.24 1018.27 1018.28 1018.18 1018.21 1017.86 1017.82 1017.87 1017.82 1017.77 1017.74 1017.71 1017.59 1017.44 1017.36 1017.30 1017.39 1017.77 1018.09 1018.28 1018.47 1018.66 1018.81 1018.76 1018.65 1018.49 1018.33 1018.10 1017.80
1021.30 1020.93 1020.46 1020.05 1019.74 1019.29 1018.64 1018.47 1018.01 1017.64 1017.55 1017.24 1017.07 1017.27 1017.49 1017.59 1017.77 1018.01 1017.94 1017.62 1017.61 1017.51 1017.54 1017.60 1017.55 1017.55 1017.56 1017.36 1017.30 1017.17 1017.06 1017.16 1017.41 1017.90 1017.91 1018.03 1018.34 1018.70 1018.69 1018.62 1018.41 1018.04 1017.98 1017.74
1020.80 1020.32 1019.89 1019.34 1019.01 1018.86 1018.37 1017.37 1017.01 1016.83 1016.75 1016.55 1016.55 1016.65 1016.81 1017.10 1017.32 1017.37 1017.35 1017.29 1017.27 1017.26 1017.27 1017.29 1017.26 1017.32 1017.33 1017.25 1017.10 1017.00 1016.89 1016.85 1016.94 1017.25 1017.25 1017.31 1017.58 1017.81 1018.07 1018.02 1018.01 1017.71 1017.65 1017.55
1020.22 1019.80 1019.33 1018.93 1018.60 1018.08 1017.43 1016.76 1016.55 1016.33 1016.25 1016.20 1016.17 1016.12 1016.20 1016.39 1016.76 1017.12 1017.10 1017.11 1017.19 1017.08 1017.10 1017.10 1017.06 1017.07 1017.07 1017.03 1016.89 1016.74 1016.66 1016.60 1016.69 1016.85 1016.95 1017.08 1017.15 1017.29 1017.45 1017.46 1017.45 1017.43 1017.40 1017.39
1019.77 1019.35 1018.94 1018.51 1018.05 1017.47 1016.93 1016.53 1016.23 1015.88 1015.78 1015.88 1015.80 1015.68 1015.78 1015.98 1016.31 1016.50 1016.72 1016.92 1017.00 1016.96 1016.98 1017.00 1016.96 1016.89 1016.82 1016.75 1016.68 1016.57 1016.44 1016.33 1016.34 1016.36 1016.42 1016.53 1016.63 1016.76 1016.90 1016.97 1017.04 1017.07 1017.08 1017.11
1019.18 1018.89 1018.25 1017.70 1017.20 1016.75 1016.36 1015.93 1015.57 1015.23 1015.18 1015.32 1015.51 1015.26 1015.52 1015.73 1016.13 1016.37 1016.45 1016.64 1016.70 1016.77 1016.83 1016.86 1016.84 1016.80 1016.70 1016.59 1016.45 1016.31 1016.14 1015.99 1015.93 1015.95 1015.97 1016.02 1016.09 1016.13 1016.18 1016.34 1016.48 1016.58 1016.71 1016.82
Thickness
5560 5560 5559 5568 5564 5566 5552 5550 5536 5550 5545 5551 5546 5538 5533 5533 5526 5521 5520 5513 5507 5498 5492 5488 5481 5473 5462 5451 5442 5434 5423 5409 5396 5385 5374 5360 5350 5341 5334 5329 5327 5323 5320 5318
5556 5552 5549 5556 5560 5548 5548 5547 5539 5538 5538 5546 5538 5530 5524 5520 5514 5508 5503 5499 5493 5486 5480 5473 5465 5456 5445 5433 5420 5410 5399 5386 5372 5360 5346 5336 5326 5318 5316 5313 5311 5309 5307 5304
5521 5522 5517 5541 5548 5548 5548 5548 5542 5526 5535 5536 5528 5521 5514 5513 5503 5499 5494 5483 5478 5472 5462 5454 5443 5430 5421 5411 5400 5389 5378 5369 5358 5343 5333 5320 5313 5311 5308 5303 5299 5296 5292 5289
5491 5513 5510 5564 5561 5553 5541 5540 5540 5530 5528 5523 5516 5515 5505 5497 5487 5480 5474 5471 5466 5456 5444 5433 5421 5413 5404 5393 5381 5365 5353 5342 5336 5328 5322 5309 5304 5300 5295 5290 5284 5281 5278 5275
5517 5509 5518 5549 5551 5547 5539 5531 5533 5523 5520 5512 5508 5490 5491 5488 5475 5469 5462 5455 5444 5428 5422 5415 5404 5393 5380 5369 5356 5346 5332 5321 5313 5306 5302 5297 5291 5285 5281 5276 5271 5267 5263 5259
5493 5500 5513 5539 5541 5538 5527 5510 5522 5516 5504 5502 5487 5479 5487 5465 5454 5442 5441 5437 5428 5419 5409 5394 5382 5373 5362 5351 5338 5328 5318 5306 5297 5290 5287 5283 5277 5272 5267 5261 5257 5252 5248 5243
5493 5489 5491 5528 5527 5526 5500 5510 5510 5503 5498 5488 5475 5476 5459 5452 5444 5435 5434 5424 5409 5400 5388 5380 5369 5356 5343 5335 5319 5309 5302 5292 5285 5277 5273 5269 5263 5258 5252 5247 5241 5233 5228 5225
5477 5477 5492 5528 5520 5503 5504 5504 5498 5489 5480 5472 5466 5454 5440 5435 5430 5427 5410 5398 5389 5381 5374 5366 5354 5339 5331 5318 5306 5295 5287 5279 5271 5264 5259 5255 5249 5243 5236 5229 5222 5216 5210 5209
5505 5501 5520 5515 5514 5507 5497 5490 5483 5475 5467 5460 5447 5434 5424 5425 5422 5412 5400 5385 5374 5364 5359 5353 5341 5324 5311 5302 5293 5285 5275 5267 5259 5253 5247 5240 5233 5227 5219 5211 5203 5198 5198 5195
5498 5519 5520 5511 5510 5503 5492 5484 5472 5463 5450 5432 5417 5417 5419 5416 5400 5393 5385 5369 5358 5350 5345 5336 5328 5316 5304 5293 5285 5276 5266 5258 5250 5241 5233 5225 5217 5211 5203 5193 5186 5186 5182 5180
5502 5507 5505 5503 5496 5482 5475 5464 5449 5437 5427 5420 5418 5417 5410 5405 5391 5380 5368 5357 5344 5336 5331 5324 5315 5304 5295 5287 5278 5268 5258 5249 5239 5230 5220 5213 5205 5197 5190 5183 5177 5176 5171 5171
5495 5500 5493 5492 5471 5461 5450 5440 5431 5428 5423 5418 5410 5404 5396 5386 5375 5364 5354 5343 5335 5326 5318 5309 5302 5295 5290 5280 5269 5259 5250 5240 5227 5217 5208 5203 5196 5188 5182 5177 5173 5169 5166 5165
5494 5492 5477 5460 5451 5445 5436 5426 5423 5416 5409 5398 5395 5382 5374 5367 5362 5352 5341 5332 5324 5315 5306 5299 5293 5289 5279 5270 5260 5249 5237 5228 5217 5208 5201 5195 5186 5178 5168 5168 5164 5162 5160 5160
5483 5475 5461 5449 5436 5431 5426 5419 5410 5402 5392 5382 5373 5368 5359 5351 5345 5333 5325 5317 5308 5301 5295 5288 5284 5278 5270 5262 5252 5239 5227 5218 5208 5199 5192 5186 5176 5169 5159 5154 5149 5151 5154 5156
5466 5458 5447 5432 5423 5418 5410 5400 5394 5383 5373 5366 5359 5345 5338 5331 5323 5317 5311 5303 5294 5289 5283 5277 5271 5266 5260 5254 5245 5234 5224 5213 5202 5195 5187 5180 5173 5162 5156 5150 5146 5146 5148 5152
5440 5431 5422 5414 5406 5396 5384 5374 5366 5361 5354 5346 5337 5328 5322 5313 5310 5304 5297 5288 5282 5274 5269 5261 5258 5257 5253 5246 5237 5226 5218 5209 5200 5194 5184 5177 5168 5159 5155 5148 5144 5144 5142 5147
5415 5408 5399 5388 5378 5371 5365 5358 5348 5338 5331 5325 5318 5309 5307 5303 5296 5290 5284 5275 5267 5262 5264 5260 5255 5251 5244 5238 5230 5220 5210 5204 5199 5189 5180 5173 5164 5157 5152 5145 5141 5141 5140 5146
5393 5386 5379 5371 5363 5356 5350 5341 5332 5324 5317 5314 5303 5299 5294 5288 5282 5277 5271 5265 5259 5259 5257 5252 5247 5246 5239 5233 5225 5215 5205 5200 5193 5182 5176 5168 5162 5157 5150 5146 5143 5141 5141 5145
5378 5370 5364 5359 5348 5339 5332 5326 5319 5308 5299 5292 5288 5288 5282 5275 5267 5266 5261 5259 5255 5254 5250 5246 5244 5241 5235 5229 5223 5214 5203 5194 5186 5181 5174 5167 5161 5156 5150 5145 5144 5141 5141 5143
5358 5352 5346 5340 5335 5324 5318 5313 5304 5298 5292 5283 5276 5271 5269 5264 5257 5257 5255 5253 5252 5250 5246 5243 5240 5236 5231 5225 5219 5210 5202 5194 5189 5180 5171 5166 5159 5153 5148 5148 5147 5142 5141 5141
5337 5334 5329 5322 5319 5316 5304 5301 5294 5291 5288 5276 5266 5264 5260 5254 5249 5248 5248 5252 5250 5246 5243 5239 5235 5232 5227 5222 5216 5207 5203 5197 5190 5178 5171 5165 5158 5154 5149 5146 5146 5143 5141 5142
5328 5321 5317 5313 5306 5305 5305 5293 5284 5281 5273 5268 5263 5256 5247 5249 5249 5249 5248 5247 5245 5242 5238 5235 5232 5229 5224 5219 5214 5209 5203 5197 5190 5179 5173 5167 5159 5154 5150 5147 5146 5144 5142 5141
5316 5311 5307 5300 5296 5296 5293 5283 5278 5273 5267 5264 5260 5253 5252 5250 5248 5245 5245 5243 5240 5238 5235 5232 5229 5226 5221 5217 5212 5207 5202 5196 5191 5179 5176 5172 5165 5156 5152 5149 5147 5145 5141 5141
5302 5299 5296 5293 5286 5278 5277 5284 5275 5269 5264 5263 5258 5258 5254 5250 5246 5244 5242 5239 5237 5234 5232 5230 5227 5222 5217 5212 5209 5204 5200 5195 5189 5179 5177 5173 5166 5160 5153 5150 5148 5145 5142 5141
5289 5287 5283 5278 5277 5277 5276 5276 5271 5266 5264 5261 5259 5258 5254 5250 5246 5240 5237 5233 5232 5231 5228 5225 5221 5217 5212 5209 5205 5201 5197 5192 5185 5179 5174 5170 5167 5163 5155 5151 5148 5145 5142 5140
5282 5279 5276 5271 5268 5270 5270 5269 5268 5268 5264 5261 5254 5255 5253 5249 5244 5240 5235 5231 5228 5226 5223 5220 5216 5212 5208 5205 5201 5196 5191 5188 5184 5178 5173 5169 5165 5163 5157 5152 5148 5145 5143 5141
5271 5263 5266 5268 5265 5264 5265 5265 5265 5267 5263 5256 5252 5252 5250 5245 5240 5235 5231 5228 5225 5221 5218 5214 5211 5208 5203 5199 5195 5191 5189 5185 5181 5176 5172 5168 5164 5161 5157 5153 5149 5146 5143 5139